This demonstration page uses our WeatherBlox Daily Observations layout. Learn more.

Left ArrowRight Arrow

34.74481, -87.66753

Hourly Observations for July 10, 2022

Temp ( °F °C ) Dew Point ( °F °C ) Humidity (%) Winds ( mph kmh ) Pressure ( in mb ) Visibility ( mi km ) Precip ( " mm )
12:53 am 00:53 Cloudy 77 25 74 23.3 90 90 WSW 5 7 29.94 1014 10 16 0.00 0.00
1:32 am 01:32 Cloudy 77 25 74 23.3 90 90 W 6 9 29.93 1013 10 16 0.00 0.00
1:48 am 01:48 Cloudy 77 25 73 23 89 89 W 6 9 29.93 1013 10 16 0.00 0.00
1:53 am 01:53 Cloudy 77 25 73 22.8 88 88 W 7 11 29.93 1014 10 16 0.00 0.00
2:09 am 02:09 Cloudy 76 24.4 73 22.8 91 91 W 6 9 29.93 1014 10 16 0.00 0.00
2:53 am 02:53 Cloudy 76 24.4 73 22.8 91 91 W 3 6 29.91 1013 10 16 0.00 0.00
3:32 am 03:32 Cloudy 76 24.4 74 23.3 94 94 WSW 5 7 29.91 1013 10 16 0.00 0.00
3:53 am 03:53 Cloudy 76 24.4 74 23.3 94 94 NW 3 6 29.90 1013 10 16 0.00 0.00
4:53 am 04:53 Cloudy 77 25 75 23.9 94 94 NW 3 6 29.89 1012 9 14 0.00 0.00
5:15 am 05:15 Cloudy 77 25 74 23.3 90 90 N 5 7 29.90 1012 10 16 0.00 0.00
5:53 am 05:53 Cloudy 77 25 74 23.3 90 90 NNE 5 7 29.92 1013 10 16 0.00 0.00
6:04 am 06:04 Cloudy 78 25.6 74 23.3 87 87 N 5 7 29.93 1013 10 16 0.00 0.00
6:13 am 06:13 Cloudy 78 25.6 74 23.3 87 87 VRB 6 9 29.93 1013 10 16 0.00 0.00
6:22 am 06:22 Cloudy 78 25.6 74 23.3 87 87 NNE 7 11 29.94 1014 10 16 0.00 0.00
6:51 am 06:51 Cloudy 77 25 73 23 89 89 NE 7 11 29.95 1014 10 16 0.00 0.00
6:53 am 06:53 Cloudy 77 25 74 23.3 90 90 NE 7 11 29.94 1014 10 16 0.00 0.00
7:23 am 07:23 Cloudy with Light Rain 76 24.4 73 22.8 91 91 ENE 7 11 29.95 1014 4 6 0.00 0.00
7:53 am 07:53 Cloudy 76 24.4 73 22.8 91 91 ENE 6 9 29.96 1015 8 13 0.00 0.00
8:06 am 08:06 Cloudy 76 24.4 73 22.8 91 91 E 6 9 29.97 1015 10 16 0.00 0.00
8:16 am 08:16 Cloudy 76 24.4 74 23.3 94 94 ENE 5 7 29.98 1015 9 14 0.00 0.00
8:53 am 08:53 Cloudy with Light Rain 76 24.4 74 23.3 94 94 N 3 6 29.98 1015 3 4 0.01 0.25
9:01 am 09:01 Cloudy with Mist and Fog 76 24.4 74 23.3 94 94 N 5 7 29.99 1016 4 6 0.00 0.00
9:41 am 09:41 Cloudy with Mist and Fog 75 23.9 73 22.8 94 94 N 6 9 29.99 1016 3 4 0.00 0.00
9:48 am 09:48 Cloudy with Mist and Fog 75 24 73 23 94 94 NNE 5 7 29.99 1016 4 6 0.00 0.00
9:53 am 09:53 Cloudy with Mist and Fog 75 23.9 73 22.8 94 94 NNE 5 7 29.98 1015 5 8 0.00 0.00
10:46 am 10:46 Cloudy 79 26.1 73 22.8 82 82 VRB 6 9 29.98 1015 10 16 0.00 0.00
10:53 am 10:53 Cloudy 79 26.1 73 22.8 82 82 N 7 11 29.98 1015 10 16 0.00 0.00
11:04 am 11:04 Cloudy 80 26.7 74 23.3 82 82 VRB 6 9 29.97 1015 10 16 0.00 0.00
11:17 am 11:17 Cloudy 82 27.8 74 23.3 77 77 N 5 7 29.97 1015 10 16 0.00 0.00
11:41 am 11:41 Cloudy 80 26.7 73 22.8 79 79 N 7 11 29.97 1015 10 16 0.00 0.00
11:53 am 11:53 Cloudy 80 26.7 73 22.8 79 79 N 7 11 29.98 1015 10 16 0.00 0.00
12:53 pm 12:53 Cloudy 80 26.7 72 22.2 76 76 N 8 13 29.98 1015 10 16 0.00 0.00
1:53 pm 13:53 Mostly Cloudy 82 27.8 71 21.7 69 69 N 5 7 29.95 1014 10 16 0.00 0.00
2:28 pm 14:28 Mostly Sunny 86 30 72 22.2 63 63 N 7 11 29.93 1014 10 16 0.00 0.00
2:53 pm 14:53 Mostly Sunny 88 31.1 72 22.2 59 59 N 7 11 29.93 1013 10 16 0.00 0.00
3:53 pm 15:53 Mostly Sunny 88 31.1 69 20.6 54 54 VRB 5 7 29.91 1013 10 16 0.00 0.00
4:53 pm 16:53 Mostly Cloudy 90 32.2 69 20.6 50 50 VRB 7 11 29.90 1013 10 16 0.00 0.00
5:53 pm 17:53 Partly Cloudy 90 32.2 69 20.6 50 50 NNE 6 9 29.89 1012 10 16 0.00 0.00
6:53 pm 18:53 Sunny 88 31.1 69 20.6 54 54 N 5 7 29.89 1012 10 16 0.00 0.00
7:53 pm 19:53 Sunny 84 28.9 69 20.6 61 61 NNE 3 6 29.89 1012 10 16 0.00 0.00
8:53 pm 20:53 Clear 79 26.1 70 21.1 74 74 Calm 29.89 1012 10 16 0.00 0.00
9:53 pm 21:53 Mostly Clear 76 24.4 72 22.2 88 88 Calm 29.91 1013 10 16 0.00 0.00
10:53 pm 22:53 Mostly Clear 76 24.4 72 22.2 88 88 Calm 29.92 1013 10 16 0.00 0.00
11:53 pm 23:53 Clear 74 23.3 71 21.7 91 91 Calm 29.93 1013 9 14 0.00 0.00

Powered by AerisWeather